This demonstration page uses our WeatherBlox Daily Observations layout. Learn more.

Left ArrowRight Arrow

44.89941, -97.11507

Hourly Observations for June 19, 2018

Temp ( °F °C ) Dew Point ( °F °C ) Humidity (%) Winds ( mph kmh ) Pressure ( in mb ) Visibility ( mi km ) Precip ( " mm )
12:06 am 00:06 Cloudy with Light Rain 64 17.8 63 17.2 96 96 NNE 7 11 29.94 1014 9 14 0.00 0.03
12:53 am 00:53 Cloudy 63 17.2 63 17.2 100 100 NNE 9 15 29.99 1016 10 16 0.00 0.03
1:53 am 01:53 Cloudy with Light Rain 64 17.8 62 16.7 93 93 NNE 10 17 29.97 1015 10 16 0.00 0.03
2:53 am 02:53 Cloudy 63 17.2 61 16.1 93 93 NE 13 20 29.97 1015 10 16 0.00 0.03
3:49 am 03:49 Cloudy 63 17 61 16 94 94 NE 14 22 29.94 1014 10 16 0.00 0.00
3:53 am 03:53 Cloudy 63 17.2 61 16.1 93 93 NE 13 20 29.97 1015 10 16 0.00 0.00
4:24 am 04:24 Cloudy 63 17.2 61 16.1 93 93 ENE 12 19 29.94 1014 10 16 0.00 0.00
4:53 am 04:53 Cloudy 63 17.2 61 16.1 93 93 NE 8 13 29.98 1015 10 16 0.00 0.00
5:19 am 05:19 Cloudy 62 16.7 61 16.1 96 96 NE 10 17 29.94 1014 10 16 0.00 0.00
5:53 am 05:53 Cloudy 61 16.1 59 15 93 93 NE 12 19 29.98 1015 10 16 0.00 0.00
6:53 am 06:53 Cloudy 62 16.7 59 15 90 90 NE 8 13 29.99 1016 10 16 0.00 0.00
7:33 am 07:33 Cloudy 63 17.2 60 15.6 90 90 NNE 7 11 29.94 1014 10 16 0.00 0.00
7:51 am 07:51 Cloudy 63 17 61 16 94 94 NE 8 13 29.94 1014 10 16 0.00 0.00
7:53 am 07:53 Cloudy 63 17.2 60 15.6 90 90 NE 8 13 30.00 1016 10 16 0.00 0.00
8:53 am 08:53 Cloudy 65 18.3 59 15 81 81 NE 12 19 29.99 1016 10 16 0.00 0.00
9:53 am 09:53 Cloudy 66 18.9 59 15 78 78 NE 14 22 29.99 1016 10 16 0.00 0.00
10:00 am 10:00 Cloudy 65 18.3 59 15 81 81 NE 12 19 29.94 1014 10 16 0.00 0.00
10:53 am 10:53 Cloudy 67 19.4 61 16.1 81 81 NE 13 20 29.98 1015 10 16 0.00 0.00
11:53 am 11:53 Cloudy 68 20 62 16.7 81 81 NE 13 20 29.98 1015 10 16 0.00 0.00
12:22 pm 12:22 Cloudy 70 21.1 63 17.2 79 79 ENE 13 20 29.91 1013 10 16 0.00 0.00
12:53 pm 12:53 Cloudy 69 20.6 63 17.2 81 81 NE 14 22 29.98 1015 10 16 0.00 0.00
1:40 pm 13:40 Cloudy 72 22.2 63 17.2 73 73 ENE 15 24 29.91 1013 10 16 0.00 0.00
1:53 pm 13:53 Cloudy 71 21.7 63 17.2 76 76 ENE 15 24 29.97 1015 10 16 0.00 0.00
2:53 pm 14:53 Mostly Cloudy 71 21.7 63 17.2 76 76 NE 17 28 29.96 1015 10 16 0.00 0.00
3:07 pm 15:07 Cloudy 70 21.1 63 17.2 79 79 NE 17 28 29.91 1013 10 16 0.00 0.00
3:28 pm 15:28 Cloudy 70 21.1 63 17.2 79 79 NE 14 22 29.91 1013 10 16 0.00 0.00
3:37 pm 15:37 Cloudy 69 20.6 63 17.2 81 81 ENE 12 19 29.91 1013 10 16 0.00 0.00
3:53 pm 15:53 Cloudy 70 21.1 63 17.2 79 79 NE 13 20 29.97 1015 10 16 0.00 0.00
4:53 pm 16:53 Cloudy 68 20 63 17.2 84 84 ENE 10 17 29.98 1015 10 16 0.00 0.00
5:03 pm 17:03 Cloudy 69 20.6 63 17.2 81 81 ENE 12 19 29.91 1013 10 16 0.00 0.00
5:53 pm 17:53 Cloudy 69 20.6 62 16.7 78 78 NE 12 19 29.98 1015 10 16 0.00 0.00
6:53 pm 18:53 Mostly Cloudy 68 20 62 16.7 81 81 NE 14 22 29.95 1014 10 16 0.00 0.00
7:53 pm 19:53 Mostly Cloudy 67 19.4 62 16.7 84 84 ENE 13 20 29.96 1014 10 16 0.00 0.00
8:00 pm 20:00 Mostly Cloudy 67 19.4 62 16.7 84 84 ENE 10 17 29.94 1014 10 16 0.00 0.00
8:12 pm 20:12 Cloudy 67 19.4 62 16.7 84 84 ENE 13 20 29.94 1014 10 16 0.00 0.00
8:37 pm 20:37 Cloudy 66 18.9 61 16.1 84 84 ENE 15 24 29.94 1014 10 16 0.00 0.00
8:53 pm 20:53 Cloudy 66 18.9 61 16.1 84 84 ENE 12 19 29.96 1015 10 16 0.00 0.00
9:53 pm 21:53 Mostly Cloudy 64 17.8 61 16.1 90 90 ENE 12 19 29.97 1015 10 16 0.00 0.00
10:53 pm 22:53 Clear 63 17.2 60 15.6 90 90 ENE 6 9 29.99 1016 10 16 0.00 0.00
11:53 pm 23:53 Clear 61 16.1 59 15 93 93 ENE 5 7 30.00 1016 10 16 0.00 0.00

Powered by AerisWeather